OpenBCM V2.0.3 (Linux)

Packet Radio Mailbox

IZ3LSV

[San Dona' di P. JN]

 Login: GUEST





  
I0OJJ  > AMSAT    31.05.26 04:00l 331 Lines 15515 Bytes #999 (0) @ WW
BID : 20S_IR0EQ
Subj: 2Line Orbital Elements
Path: IZ3LSV<IW8PGT<LU4ECL<LU9DCE<VE3CGR<KQ6UP<I0OJJ<IR0EQ
Sent: 260531/0026z @:IR0EQ.ITA.EU [Rome] $:20S_IR0EQ

>From i0ojj%ir0eq.ita.eu@i0ojj.ampr.org Sun May 31 02:29:51 2026
Received: from i0ojj.ampr.org by i0ojj.ampr.org (JNOS2.0q.1) with SMTP
	id AA17061198 ; Sun, 31 May 2026 02:29:51 +0200
Message-Id: <20S_IR0EQ@i0ojj.bbs>
>From: i0ojj@ir0eq.ita.eu
X-JNOS-User-Port: Telnet   (i0ojj @ 44.27.18.9)  ->   Sending message

>From i0ojj@rgate.ampr.org Sun May 31 02:26:51 2026
Received: from rgate.ampr.org by rgate.ampr.org (JNOS2.0q.1) with SMTP
	id AA2620 ; Sun, 31 May 2026 02:26:51 +0200
Received: by rgate.ampr.org with SMTP
	id AA2617 ; Sun, 31 May 2026 02:26:01 +0200
Message-Id: <2618@rgate.ampr.org>
>From: i0ojj@rgate.ampr.org

SB KEPS @ AMSAT  $ORB26151.1
2Line Orbital Elements 26151.AMSAT

QST de W1STR

AMSAT Orbital Elements for Amateur Satellites in TLE Format
>From Orbital Analysis Office
New England Sci-Tech STEM Education Center
Natick MA May 31, 2026
To all radio amateurs


These element sets describe the orbits of various satellites 
in use by the amateur radio community. For details see:
www.amsat.org/keplerian-elements-formats/

A daily update of element sets is available at:
www.amsat.org/tle/daily-bulletin.txt
or without bulletin text:
www.amsat.org/tle/dailytle.txt


AO-07
1 07530U 74089B   26150.59921147 -.00000035  00000-0  69991-4 0  9992
2 07530 101.9903 163.6623 0012392 163.0393 311.3733 12.53697802358313
UO-11
1 14781U 84021B   26150.83698025  .00001522  00000-0  16069-3 0  9996
2 14781  97.8048 116.6072 0006231 234.9595 125.1039 14.90736305254540
AO-27
1 22825U 93061C   26150.65872191  .00000145  00000-0  72300-4 0  9997
2 22825  98.6885 218.0778 0009058 145.8162 214.3605 14.30937002704491
FO-29
1 24278U 96046B   26150.86233892 -.00000014  00000-0  18807-4 0  9997
2 24278  98.5255   2.1066 0350516 141.2806 221.4026 13.53273512470826
GO-32
1 25397U 98043D   26150.85483566  .00000077  00000-0  53422-4 0  9993
2 25397  99.0064 143.1769 0000219 260.9333  99.1820 14.24424689448868
ISS
1 25544U 98067A   26150.83995330  .00011335  00000-0  20978-3 0  9996
2 25544  51.6338  25.9780 0007215 115.7878 244.3855 15.49504954569064
NO-44
1 26931U 01043C   26150.83762066  .00000170  00000-0  94367-4 0  9992
2 26931  67.0511 289.1447 0006135 264.0006  96.0397 14.31948970287963
SO-50
1 27607U 02058C   26150.48779528  .00001244  00000-0  16366-3 0  9997
2 27607  64.5508 183.7455 0075560 265.7135  93.5335 14.83004849261836
CO-55
1 27844U 03031E   26150.54535265  .00000367  00000-0  17766-3 0  9997
2 27844  98.6737 159.3263 0008514 232.2802 127.7606 14.24323791189163
RS-22
1 27939U 03042A   26150.83805598  .00001835  00000-0  29091-3 0  9990
2 27939  98.3463 334.7078 0010612 330.1020 146.7860 14.73435294212993
CO-65
1 32785U 08021C   26150.87964265  .00006895  00000-0  43648-3 0  9993
2 32785  97.8267 131.9415 0010808  88.8154 271.4312 15.09269731982586
CO-66
1 32791U 08021J   26150.50529315  .00021088  00000-0  68228-3 0  9995
2 32791  97.7511 147.5679 0003551  49.7745 310.3805 15.32079827984581
RS-30
1 32953U 08025A   26150.87616073  .00000010  00000-0  35664-5 0  9999
2 32953  82.5056   6.2107 0019600 352.3790   7.6989 12.43178433817541
SRMSAT
1 37841U 11058D   26150.42249269  .00000411  00000-0  79549-4 0  9994
2 37841  19.9700 166.9966 0011796   9.7211 131.6550 14.11571540755308
ZACUBE-1
1 39417U 13066B   26150.87627542  .00005765  00000-0  44830-3 0  9990
2 39417  97.8106 113.1193 0039999 309.1134  50.6535 15.01053962678137
Delfi-N3xt
1 39428U 13066N   26150.84262911  .00007929  00000-0  69486-3 0  9992
2 39428  97.8346  71.1722 0073075 264.4618  94.8265 14.94880180672033
GOMX-1
1 39430U 13066Q   26150.82164402  .00003048  00000-0  46021-3 0  9997
2 39430  97.6495 352.3815 0129866 132.7970 228.4244 14.69385487667368
LO-74
1 39440U 13066AA  26150.84690824  .00005204  00000-0  48184-3 0  9990
2 39440  97.8898  99.7552 0059314  85.0571 275.7416 14.93605945674405
AO-73
1 39444U 13066AE  26150.88638683  .00008594  00000-0  53648-3 0  9999
2 39444  97.8260 121.9749 0034564 262.2658  97.4645 15.09250694677055
DTUSAT-2
1 40030U 14033W   26150.53591537  .00009633  00000-0  52284-3 0  9995
2 40030  98.0855 147.1461 0006304 301.5746  58.4869 15.14763468650014
LILACSAT-2
1 40908U 15049K   26150.85443514  .00021692  00000-0  37702-3 0  9990
2 40908  97.4662 187.0434 0005623 328.9891  31.1028 15.50820007593066
Horyu-4
1 41340U 16012D   26150.48275355  .00270529  00000-0  11013-2 0  9998
2 41340  30.9857 207.8812 0002421 158.6606 201.4154 15.84355645567994
Lapan A3
1 41603U 16040E   26150.89410498  .00004337  00000-0  13820-3 0  9996
2 41603  97.1480 147.6101 0012199  80.0279 280.2340 15.32984793552162
CAS-2T
1 41847U 16066G   26150.78633175  .00001872  00000-0  27072-3 0  9996
2 41847  98.3824 226.7206 0342018 182.1768 177.7955 14.44632524502289
TechnoSat
1 42829U 17042E   26150.82851492  .00004194  00000-0  29986-3 0  9997
2 42829  97.4269 309.1511 0018785 148.2106 212.0259 15.04843979484091
AO-91
1 43017U 17073E   26150.61112050  .00012250  00000-0  53366-3 0  9999
2 43017  97.4731  18.1891 0152418  29.9783 331.0066 15.12376389462731
S-Net D
1 43186U 18014G   26150.71344546  .00006201  00000-0  32149-3 0  9995
2 43186  97.5384  55.6146 0010093  81.5321 278.7055 15.16487322456110
S-Net B
1 43187U 18014H   26150.72455840  .00006511  00000-0  33757-3 0  9997
2 43187  97.5390  55.6117 0010722  77.4722 282.7709 15.16458570456118
S-Net A
1 43188U 18014J   26150.77839809  .00006178  00000-0  32016-3 0  9990
2 43188  97.5399  55.8707 0010606  77.9708 282.2713 15.16495562456128
S-Net C
1 43189U 18014K   26150.66235911  .00006730  00000-0  34876-3 0  9993
2 43189  97.5418  55.8273 0011912  71.8314 288.4214 15.16449380454653
Ten-Koh
1 43677U 18084G   26150.48022093  .00003936  00000-0  29835-3 0  9991
2 43677  98.0761 342.0969 0009731 173.5889 186.5461 15.02851275413504
PO-101
1 43678U 18084H   26150.83056016  .00003365  00000-0  27290-3 0  9992
2 43678  98.1143 346.2891 0011768 228.5022 131.5191 15.00361729413613
QO-100
1 43700U 18090A   26150.79340793  .00000157  00000-0  00000+0 0  9990
2 43700   0.0183 317.7409 0001805 136.5877 105.3947  1.00270558 27501
MinXSS-2
1 43758U 18099A   26150.81352698  .00042002  00000-0  86934-3 0  9991
2 43758  97.4548 226.6047 0006116 332.0503  28.0416 15.45647117411449
AO-95
1 43770U 18099N   26150.64122480  .00015077  00000-0  58270-3 0  9994
2 43770  97.4396 210.9562 0009764  58.0053 302.2133 15.26291710410545
SNUSat 2
1 43782U 18099AA  26150.57868672  .00010522  00000-0  46923-3 0  9991
2 43782  97.4070 204.2354 0010068   7.3039 352.8342 15.21540850410351
SnugLite
1 43784U 18099AC  26150.58140116  .00015041  00000-0  57402-3 0  9995
2 43784  97.3881 205.0386 0002722  26.6357 333.5021 15.26750536410631
ITASat 1
1 43786U 18099AE  26150.56418294  .00009422  00000-0  45471-3 0  9999
2 43786  97.4037 202.4292 0013836  59.3080 300.9516 15.18804262410238
EAGLET 1
1 43790U 18099AJ  26150.72377588  .00005162  00000-0  29722-3 0  9990
2 43790  97.4241 200.8556 0012383  52.6855 307.5503 15.12791552409695
ESEO
1 43792U 18099AL  26150.55208341  .00001644  00000-0  12238-3 0  9998
2 43792  97.3981 188.6962 0013287  41.4267 318.7964 15.04187264409154
JO-97
1 43803U 18099AX  26150.14963961  .00022375  00000-0  70257-3 0  9991
2 43803  97.4140 212.9285 0004668 349.6611  10.4534 15.33015809410869
Suomi 100
1 43804U 18099AY  26150.59266666  .00016564  00000-0  60817-3 0  9993
2 43804  97.4199 211.0555 0009226 351.1324   8.9751 15.27974158410731
ISAT
1 43879U 18111D   26150.75644169  .00092022  00000-0  10429-2 0  9992
2 43879  97.5900  84.6790 0004652  52.4075 307.7604 15.62079127408444
UWE-4
1 43880U 18111E   26150.34581630  .00045687  00000-0  96821-3 0  9998
2 43880  97.5862  77.9309 0008920  44.6920 315.5045 15.44911436408026
Sparrow
1 43881U 18111F   26150.81634840  .00140391  00000-0  11789-2 0  9990
2 43881  97.6133  90.0735 0005799  92.2567 267.9359 15.69454102408640
Prox-1
1 44339U 19036A   26150.58289545  .00015753  00000-0  15578-2 0  9991
2 44339  23.9947 231.8121 0005910 182.1526 177.8948 14.90153476370843
Taurus 1
1 44530U 19059C   26150.84119161  .00008281  00000-0  13296-2 0  9997
2 44530  98.6401 314.5972 0008300  15.7755 344.3707 14.71889674356094
TO-108
1 44881U 19093C   26150.81254219  .00001172  00000-0  13831-3 0  9993
2 44881  97.7537 223.4679 0014487 139.6073 220.6222 14.86486180348839
RS-44
1 44909U 19096E   26150.57067963  .00000031  00000-0  76848-4 0  9999
2 44909  82.5221 351.4139 0217364 185.2973 174.5828 12.79748548300094
SALSAT
1 46495U 20068K   26150.54880527  .00010252  00000-0  36063-3 0  9998
2 46495  97.8845 152.5438 0009937  15.6059 344.5484 15.29513109312669
CSS (TIANHE-1)
1 48274U 21035A   26150.82458383  .00021542  00000-0  26142-3 0  9993
2 48274  41.4695  67.6061 0010511 311.2281  48.7651 15.60030932290458
CUTE
1 49263U 21088D   26150.69279602  .00334741  00000-0  13625-2 0  9999
2 49263  97.4204 248.3774 0005594 260.6232  99.4406 15.85325477259770
TeikyoSat 4
1 49396U 21102B   26150.55379466  .00002789  00000-0  17791-3 0  9990
2 49396  97.3678 180.7228 0011936   2.3794 357.7491 15.09439899250062
Z-Sat
1 49399U 21102E   26150.86374612  .00004668  00000-0  23140-3 0  9998
2 49399  97.3332 186.7132 0015136 312.0134  47.9810 15.18118583250817
KOSEN 1
1 49402U 21102H   26150.83841197  .00009308  00000-0  35778-3 0  9993
2 49402  97.3195 193.3349 0011935 267.7998  92.1874 15.26569866251377
HO-113
1 50466U 21131B   26150.83855095  .00000815  00000-0  26555-3 0  9996
2 50466  98.4975 243.3227 0004954 138.1199 222.0369 14.41340008232615
SNUGLITE 2
1 52899U 22065F   26150.81158095  .00001264  00000-0  24860-3 0  9995
2 52899  98.2179 295.6755 0008759  81.1315 279.0879 14.64311199208458
